Location: ???????
(55.7027°N, 37.3832°E)
Time: 07:26:52
(UTC+00:00)

MetOp-A - Pass Details

Date: 14 April 2026
Orbit: 520 x 765 km, 98.3° (Epoch: 12 May)

Event Time Altitude Azimuth Distance (km) Brightness Sun altitude
Exits shadow 20:49:37 60° 116° (ESE) 851 4.0 -24.1°
Maximum altitude 20:50:19 69° 69° (ENE) 802 4.0 -24.1°
Drops below altitude 10° 20:55:24 10° 348° (NNW) 2,309 7.6 -24.2°
Sets 20:57:45 0° 346° (NNW) 3,247 8.7 -24.3°
